Weather History for TJPS - January, 2013

Change the Weather History Date:

Monday, January 21, 2013

  Actual Average Record
Temperature  
Mean Temperature 76 °F -  
Max Temperature 87 °F 85 °F 87 °F (1997)
Min Temperature 66 °F 67 °F 62 °F (2007)
Cooling Degree Days 12    
Growing Degree Days 26 (Base 50)    
Moisture  
Dew Point 67 °F    
Average Humidity 73    
Maximum Humidity 88    
Minimum Humidity 51    
Precipitation  
Precipitation 0.00 in - - ()
Sea Level Pressure  
Sea Level Pressure 29.99 in    
Wind  
Wind Speed 5 mph (East)    
Max Wind Speed 14 mph    
Max Gust Speed -    
Visibility 9 miles    
Events      
Averages and records for this station are not official NWS values.
T = Trace of Precipitation, MM = Missing Value Source: NWS Daily Summary

Daily Weather History Graph

Daily Weather History Graph

Search for Another Location

Airport or City:

Trip Planner

Search our weather history database for the weather conditions in past years. The results will help you decide how hot, cold, wet, or windy it might be!

Date:

Astronomy

Jan. 21, 2013 Rise Set
Actual Time 7:00 AM AST 6:14 PM AST
Civil Twilight 6:37 AM AST 6:37 PM AST
Nautical Twilight 6:11 AM AST 7:04 PM AST
Astronomical Twilight 5:44 AM AST 7:30 PM AST
Moon 1:54 PM AST (1/21) 2:24 AM AST (1/21)
Length of Visible Light 12h 00m
Length of Day
11h 14m
Waxing Gibbous, 74% of the Moon is Illuminated
Jan 21
Waxing Gibbous
Jan 27
Full
Feb 3
Last Quarter
Feb 10
New
Feb 17
First Quarter

Hourly Weather History & Observations

Time (AST) Temp. Heat Index Dew Point Humidity Pressure Visibility Wind Dir Wind Speed Gust Speed Precip Events Conditions
12:50 AM 71.6 °F - 64.4 °F 78% 30.02 in 8.0 mi ENE 5.8 mph - N/A   Mostly Cloudy
1:50 AM 66.2 °F - 60.8 °F 83% 30.01 in 8.0 mi Calm Calm - N/A   Partly Cloudy
2:50 AM 66.2 °F - 60.8 °F 83% 30.00 in 8.0 mi Calm Calm - N/A   Partly Cloudy
3:50 AM 66.2 °F - 60.8 °F 83% 29.99 in 8.0 mi Calm Calm - N/A   Mostly Cloudy
4:50 AM 66.2 °F - 60.8 °F 83% 29.98 in 8.0 mi Calm Calm - N/A   Mostly Cloudy
5:50 AM 66.2 °F - 60.8 °F 83% 29.99 in 8.0 mi Calm Calm - N/A   Partly Cloudy
6:50 AM 66.2 °F - 60.8 °F 83% 29.99 in 10.0 mi Calm Calm - N/A   Mostly Cloudy
7:50 AM 69.8 °F - 66.2 °F 88% 29.99 in 10.0 mi ENE 5.8 mph - N/A   Partly Cloudy
8:50 AM 80.6 °F 82.7 °F 66.2 °F 61% 30.01 in 10.0 mi East 6.9 mph - N/A   Partly Cloudy
9:50 AM 84.2 °F 85.6 °F 64.4 °F 51% 30.01 in 10.0 mi East 5.8 mph - N/A   Partly Cloudy
10:50 AM 84.2 °F 88.4 °F 69.8 °F 62% 30.01 in 10.0 mi SSE 11.5 mph - N/A   Partly Cloudy
11:50 AM 86.0 °F 90.4 °F 69.8 °F 58% 30.01 in 10.0 mi ESE 11.5 mph - N/A   Partly Cloudy
12:50 PM 86.0 °F 90.4 °F 69.8 °F 58% 30.01 in 10.0 mi South 11.5 mph - N/A   Partly Cloudy
1:50 PM 87.8 °F 95.6 °F 73.4 °F 62% 29.98 in 10.0 mi SE 11.5 mph - N/A   Partly Cloudy
2:50 PM 87.8 °F 95.6 °F 73.4 °F 62% 29.95 in 10.0 mi SSE 13.8 mph - N/A   Scattered Clouds
3:50 PM 86.0 °F 91.8 °F 71.6 °F 62% 29.93 in 10.0 mi ESE 11.5 mph - N/A   Scattered Clouds
4:50 PM 86.0 °F 91.8 °F 71.6 °F 62% 29.93 in 10.0 mi SSE 13.8 mph - N/A   Scattered Clouds
5:50 PM 82.4 °F 87.2 °F 71.6 °F 70% 29.95 in 10.0 mi SE 11.5 mph - N/A   Scattered Clouds
6:50 PM 78.8 °F - 69.8 °F 74% 29.97 in 8.0 mi NE 5.8 mph - N/A   Scattered Clouds
7:50 PM 77.0 °F - 68.0 °F 74% 30.00 in 8.0 mi North 5.8 mph - N/A   Partly Cloudy
8:50 PM 73.4 °F - 66.2 °F 78% 30.03 in 8.0 mi NNE 5.8 mph - N/A   Partly Cloudy
9:50 PM 71.6 °F - 68.0 °F 88% 30.03 in 8.0 mi Calm Calm - N/A   Partly Cloudy
10:50 PM 69.8 °F - 66.2 °F 88% 30.03 in 8.0 mi NE 5.8 mph - N/A   Mostly Cloudy
11:50 PM 69.8 °F - 66.2 °F 88% 30.03 in 8.0 mi Calm Calm - N/A   Mostly Cloudy